Location: Solstice Park, West Seattle
(47.5363°N, 122.3905°W)
Time: 09:28:08
(UTC-07:00)

ISS - Pass Details

Date: 15 May 2021
Orbit: 417 x 422 km, 51.6° (Epoch: 18 June)

Event Time Altitude Azimuth Distance (km) Brightness Sun altitude
Rises 22:19:04 0° 233° (SW) 2,355 0.1 -13.5°
Reaches altitude 10° 22:21:11 10° 229° (SW) 1,495 -1.0 -13.8°
Maximum altitude 22:24:29 58° 150° (SSE) 493 -3.8 -14.1°
Drops below altitude 10° 22:27:49 10° 70° (ENE) 1,505 -1.1 -14.5°
Sets 22:29:56 0° 67° (ENE) 2,374 -0.1 -14.7°
